Overview Statistics Trail Chart Weather Telemetry Raw packets
 

This is the latest recevied weather packets stored in our database for station/object TB1YZC-13. If no packets are shown the sender has not sent any weather packets the latest 10 day(s).

<< 4 5 6 7 8 9 10 >>
Time Temp. Humidity Pressure Rain* Wind** Luminosity Snow
1788583449 20° C 87% 1020.4 hPa - - - -
1788582846 20° C 88% 1020.2 hPa - - - -
1788582244 20° C 88% 1020.1 hPa - - - -
1788581640 19.44° C 93% 1020.1 hPa - - - -
1788581037 18.89° C 94% 1020.1 hPa - - - -
1788580434 19.44° C 93% 1020.1 hPa - - - -
1788579831 19.44° C 91% 1020 hPa - - - -
1788579228 20° C 91% 1019.8 hPa - - - -
1788578625 20° C 92% 1019.8 hPa - - - -
1788577418 19.44° C 94% 1019.8 hPa - - - -
1788576815 19.44° C 95% 1019.7 hPa - - - -
1788576212 19.44° C 94% 1019.7 hPa - - - -
1788575609 19.44° C 93% 1019.8 hPa - - - -
1788575006 19.44° C 92% 1019.7 hPa - - - -
1788574403 20° C 92% 1019.6 hPa - - - -
1788573800 20° C 93% 1019.5 hPa - - - -
1788573197 19.44° C 94% 1019.5 hPa - - - -
1788572594 20° C 96% 1019.4 hPa - - - -
1788571991 19.44° C 99% 1019.5 hPa - - - -
1788571387 20.56° C 98% 1019.4 hPa - - - -
1788570784 19.44° C 97% 1019.6 hPa - - - -
1788570181 19.44° C 98% 1019.6 hPa - - - -
1788569578 19.44° C 100% 1019.5 hPa - - - -
1788568975 19.44° C 99% 1019.6 hPa - - - -
1788568372 19.44° C 99% 1019.5 hPa - - - -

* Rain since midnight (hover to see other rain measurements)
** Current wind speed in m/s (hover to see current wind gust speed)